User: anonymous   Login
Location: Unspecified
(0.0000°N, 0.0000°E)
Time: 11:10:39
(UTC+00:00)
Language:

Meteor 1-29 - Orbit

View from above orbital plane
View from above orbital plane
View from above satellite
View from above satellite

Ground track
Ground track

The orbit data is extracted from the following two-line orbital elements,

1 11251U 79005A   18019.07465730  .00000943  00000-0  28428-4 0  9996
2 11251  97.7240 251.8556 0017132  30.9532 329.2717 15.37002450672765
Epoch (UTC): 19 January 2018 01:47:30
Eccentricity: 0.0017132
inclination: 97.7240°
perigee height: 443 km
apogee height: 466 km
right ascension of ascending node: 251.8556°
argument of perigee: 30.9532°
revolutions per day: 15.37002450
mean anomaly at epoch: 329.2717°
orbit number at epoch: 67276

The dashed part of the orbit path shows where the satellite is in the earth's shadow,  

DLR